SCP
0 0 0 0 0 0 0 0 0 0 0 0 0 0 0 0 0 0 0 0 0 0 0 0 0 0 0 0 0 0 0 0 0 0 0 0 0 0 0 0 0 0 0 0
0 0 0 0 0 0 0 0 0 0 0 0 0 0 0 0 0 0 0 0 0 0 0 0 0 0 0 0 0 0 0 0 0 0 0 0 0 0 0 0 0 0 0 0
0 0 0 0 0 0 0 0 0 0 0 0 0 0 0 0 0 0 0 0 0 0 0 0 0 0 0 0 0 0 0 0 0 0 0 0 0 0 0 0 0 0 0 0
0 0 0 0 0 0 0 0 0 0 0 0 0 0 0 0 0 0 0 0 0 0 0 0 0 0 0 0 0 0 0 0 0 0 0 0 0 0 0 0 0 0 0 0
0 0 0 0 0 0 0 0 0 0 0 0 0 0 0 0 0 0 0 0 0 0 0 0 0 0 0 0 0 0 0 0 0 0 0 0 0 0 0 0 0 0 0 0
0 0 0 0 0 0 0 0 0 0 0 0 0 0 0 0 0 0 0 0 0 0 0 0 0 0 0 0 0 0 0 0 0 0 0 0 0 0 0 0 0 0 0 0
0 0 0 0 0 0 0 0 0 0 0 0 0 0 0 0 0 0 0 0 0 0 0 0 0 0 0 0 0 0 0 0 0 0 0 0 0 0 0 0 0 0 0 0
0 0 0 0 0 0 0 0 0 0 0 0 0 0 0 0 0 0 0 0 0 0 0 0 0 0 0 0 0 0 0 0 0 0 0 0 0 0 0 0 0 0 0 0
0 0 0 0 0 0 0 0 0 0 0 0 0 0 0 0 0 0 0 0 0 0 0 0 0 0 0 0 0 0 0 0 0 0 0 0 0 0 0 0 0 0 0 0
0 0 0 0 0 0 0 0 0 0 0 0 0 0 0 0 0 0 0 0 0 0 0 0 0 0 0 0 0 0 0 0 0 0 0 0 0 0 0 0 0 0 0 0
0 0 0 0 0 0 0 0 0 0 0 0 0 0 0 0 0 0 0 0 0 0 0 0 0 0 0 0 0 0 0 0 0 0 0 0 0 0 0 0 0 0 0 0
0 0 0 0 0 0 0 0 0 0 0 0 0 0 0 0 0 0 0 0 0 0 0 0 0 0 0 0 0 0 0 0 0 0 0 0 0 0 0 0 0 0 0 0
0 0 0 0 0 0 0 0 0 0 0 0 0 0 0 0 0 0 0 0 0 0 0 0 0 0 0 0 0 0 0 0 0 0 0 0 0 0 0 0 0 0 0 0
0 0 0 0 0 0 0 0 0 0 0 0 0 0 0 0 0 0 0 0 0 0 0 0 0 0 0 0 0 0 0 0 0 0 0 0 0 0 0 0 0 0 0 0
0 0 0 0 0 0 0 0 0 0 0 0 0 0 0 0 0 0 0 0 0 0 0 0 0 0 0 0 0 0 0 0 0 0 0 0 0 0 0 0 0 0 0 0
0 0 0 0 0 0 0 0 0 0 0 0 0 0 0 0 0 0 0 0 0 0 0 0 0 0 0 0 0 0 0 0 0 0 0 0 0 0 0 0 0 0 0 0
0 0 0 0 0 0 0 0 0 0 0 0 0 0 0 0 0 0 0 0 0 0 0 0 0 0 0 0 0 0 0 0 0 0 0 0 0 0 0 0 0 0 0 0
0 0 0 0 0 0 0 0 0 0 0 0 0 0 0 0 0 0 0 0 0 0 0 0 0 0 0 0 0 0 0 0 0 0 0 0 0 0 0 0 0 0 0 0
0 0 0 0 0 0 0 0 0 0 0 0 0 0 0 0 0 0 0 0 0 0 0 0 0 0 0 0 0 0 0 0 0 0 0 0 0 0 0 0 0 0 0 0
0 0 0 0 0 0 0 0 0 0 0 0 0 0 0 0 0 0 0 0 0 0 0 0 0 0 0 0 0 0 0 0 0 0 0 0 0 0 0 0 0 0 0 0
0 0 0 0 0 0 0 0 0 0 0 0 0 0 0 0 0 0 0 0 0 0 0 0 0 0 0 0 0 0 0 0 0 0 0 0 0 0 0 0 0 0 0 0
0 0 0 0 0 0 0 0 0 0 0 0 0 0 0 0 0 0 0 0 0 0 0 0 0 0 0 0 0 0 0 0 0 0 0 0 0 0 0 0 0 0 0 0
0 0 0 0 0 0 0 0 0 0 0 0 0 0 0 0 0 0 0 0 0 0 0 0 0 0 0 0 0 0 0 0 0 0 0 0 0 0 0 0 0 0 0 0
0 0 0 0 0 0 0 0 0 0 0 0 0 0 0 0 0 0 0 0 0 0 0 0 0 0 0 0 0 0 0 0 0 0 0 0 0 0 0 0 0 0 0 0
0 0 0 0 0 0 0 0 0 0 0 0 0 0 0 0 0 0 0 0 0 0 0 0 0 0 0 0 0 0 0 0 0 0 0 0 0 0 0 0 0 0 0 0
0 0 0 0 0 0 0 0 0 0 0 0 0 0 0 0 0 0 0 0 0 0 0 0 0 0 0 0 0 0 0 0 0 0 0 0 0 0 0 0 0 0 0 0
Wind_Speed
5 7 7 6 6 4 3 4 4 2 2 4 5 5 4 4 6 6 6 7 6 6 6 6 6 6 5 5 4 4 4 3 3 2 2 2 2 1 2 2 2 2 1 2
7 8 6 5 5 7 6 6 5 3 3 4 4 5 4 5 6 6 7 7 6 6 6 7 7 7 6 6 5 4 4 3 3 2 2 1 1 1 1 1 1 1 1 2
9 3 5 7 8 8 8 7 5 4 3 5 5 6 6 5 5 5 6 6 6 6 6 7 8 7 7 6 6 5 4 4 4 3 2 2 2 1 1 1 1 1 1 2
7 5 6 8 8 8 7 6 6 6 7 5 6 5 4 5 6 6 6 6 6 6 6 6 6 7 7 6 6 5 4 4 4 4 4 4 2 2 1 1 1 1 1 1
6 6 8 8 7 8 4 3 6 7 7 6 6 7 3 4 5 5 6 6 6 6 6 6 6 6 6 6 5 5 5 4 4 4 4 4 2 2 1 1 2 1 1 1
4 4 5 5 4 6 5 5 5 5 7 8 6 7 3 3 3 3 4 5 5 5 5 5 4 5 5 5 5 5 5 5 5 5 5 4 4 3 2 2 2 1 1 1
8 7 5 4 6 7 8 7 5 6 7 4 2 5 3 1 0 2 3 4 4 5 5 4 4 4 5 5 5 5 5 5 5 5 5 5 4 4 3 3 2 2 1 1
8 8 7 6 8 7 9 9 6 5 4 2 5 6 1 2 1 1 2 2 3 4 4 4 4 4 5 6 6 5 5 5 5 5 5 4 4 3 2 2 2 2 1 1
5 5 4 3 3 6 8 8 6 7 5 6 5 4 3 3 2 2 2 2 2 3 3 3 3 4 4 5 5 5 5 5 5 5 5 4 4 3 3 3 2 2 2 1
4 4 3 3 4 1 4 4 5 7 6 7 5 6 4 4 3 3 2 2 2 2 2 2 2 3 3 4 4 4 5 5 5 5 4 4 4 4 3 3 3 2 2 2
5 6 4 6 7 6 6 6 6 5 6 7 5 2 2 2 2 2 2 2 2 2 2 2 2 2 2 3 4 4 5 4 4 4 4 4 4 3 3 3 3 3 3 2
4 6 5 4 2 2 5 6 7 7 7 7 7 2 4 1 1 1 1 2 2 2 2 2 2 2 2 2 3 4 4 4 4 3 4 4 3 3 3 3 3 3 3 2
3 6 6 6 7 5 5 3 5 6 6 7 8 3 4 1 1 0 1 2 2 2 2 2 2 2 2 2 2 3 4 4 4 4 3 3 3 3 2 2 2 2 3 3
4 6 7 6 2 3 5 4 5 7 8 8 9 8 4 3 3 1 1 2 2 2 2 2 2 1 1 1 2 3 3 4 4 4 4 3 3 3 3 2 2 3 3 3
4 6 6 5 3 4 6 7 8 10 10 10 8 8 7 4 4 3 2 2 3 2 2 2 2 1 1 1 2 3 3 4 4 4 4 3 3 3 3 3 2 2 3 3
4 5 5 6 5 5 7 9 10 11 11 11 10 10 4 3 3 3 4 4 3 3 3 2 2 2 2 2 2 3 3 3 4 4 3 3 3 3 3 3 3 2 3 3
4 6 7 7 4 6 9 8 9 9 8 9 10 7 3 4 4 4 4 4 4 3 3 3 3 2 3 2 2 3 3 3 4 4 3 3 3 3 3 3 3 3 3 3
6 7 5 5 6 10 2 1 3 6 6 6 6 5 4 3 3 3 4 4 4 3 3 3 3 2 2 2 2 2 3 3 3 4 3 3 3 3 3 3 3 3 3 3
7 7 5 6 8 8 4 2 3 5 6 4 5 4 2 1 3 3 3 4 4 3 3 3 3 3 2 2 2 3 3 3 3 4 4 4 4 4 3 3 4 3 3 3
4 6 6 6 7 7 1 2 1 4 6 1 3 3 3 3 5 2 1 2 2 2 2 2 2 2 2 2 3 3 3 3 3 4 4 4 4 4 4 4 4 3 3 3
5 5 8 8 8 6 2 1 3 6 2 2 2 2 3 4 4 3 1 2 2 2 2 2 2 2 2 2 3 4 3 4 3 3 4 4 4 5 4 4 4 4 3 3
5 5 6 6 7 5 2 2 3 3 4 3 3 2 3 4 3 3 3 2 2 2 2 2 2 2 2 2 3 4 4 3 2 3 4 4 4 4 3 4 4 4 4 4
5 4 3 4 3 3 0 2 3 4 4 3 3 3 3 3 4 4 4 3 3 3 3 2 3 2 2 3 4 4 3 3 3 3 3 4 4 3 3 4 4 3 4 4
3 2 4 5 5 4 4 3 4 4 4 4 4 4 4 4 4 5 4 4 3 4 3 3 3 4 4 3 4 4 3 3 3 4 3 3 3 3 3 3 3 3 3 4
4 3 5 8 6 5 5 4 4 4 4 5 5 5 5 5 5 5 5 4 4 4 3 4 5 5 4 4 4 3 3 3 4 4 3 3 3 3 3 3 3 4 4 3
6 7 7 7 6 6 6 5 6 6 6 6 6 6 6 5 6 6 5 4 4 4 4 4 5 5 4 4 4 3 3 4 4 4 3 3 3 3 3 3 3 1 3 3
Wind_Direction
192 206 206 203 222 247 229 223 216 207 180 218 221 231 218 193 205 210 208 205 200 201 186 179 173 172 173 174 173 168 174 168 161 157 157 151 137 119 99 79 76 85 93 95
193 210 215 218 207 216 223 227 218 185 177 229 233 248 238 214 213 214 214 205 200 194 188 181 182 179 183 182 184 180 180 177 176 178 176 166 126 106 83 86 80 77 84 85
210 193 199 205 204 215 223 233 230 222 201 213 243 241 217 204 209 213 220 217 209 203 198 194 193 190 189 188 190 187 187 185 184 176 161 146 141 156 138 118 99 75 83 89
216 208 198 205 212 227 225 229 237 231 234 225 240 266 213 204 205 206 208 211 212 209 210 205 202 198 195 192 191 192 188 191 182 177 179 178 184 176 174 151 134 132 111 102
197 199 206 214 219 227 237 219 223 232 244 251 234 257 225 194 219 209 205 206 203 204 204 201 203 200 194 187 189 195 191 188 182 184 183 197 196 183 166 159 149 150 134 137
210 200 225 225 211 206 185 183 188 220 241 247 241 248 255 195 235 214 192 196 202 201 198 196 194 193 189 182 184 192 191 188 191 195 194 196 190 186 176 179 171 174 159 164
204 201 200 211 195 186 207 219 218 216 219 237 178 241 254 71 333 241 208 197 193 190 189 186 181 178 182 184 186 187 187 188 190 196 195 194 193 194 195 193 185 199 190 175
213 202 192 207 226 217 211 229 244 255 250 215 194 233 167 104 84 236 213 187 178 180 184 181 178 176 180 185 190 193 193 191 187 194 192 193 191 200 203 211 209 217 216 191
231 208 156 187 231 234 209 221 259 270 265 259 222 213 194 155 162 139 148 156 167 180 179 178 176 175 177 186 191 198 196 192 187 193 193 194 197 205 210 210 210 211 207 193
263 234 181 176 183 191 270 208 214 237 250 248 232 232 220 181 184 170 160 162 169 164 171 171 176 179 177 181 192 192 195 196 190 193 193 194 201 205 207 210 200 200 199 198
251 237 194 195 214 210 191 206 222 234 256 265 256 218 98 168 156 178 186 175 164 162 164 160 156 166 174 179 184 185 189 191 190 194 192 191 193 198 199 201 201 203 202 201
233 250 226 210 187 275 239 231 228 241 238 248 270 259 101 129 122 169 188 163 148 152 154 148 146 146 156 172 189 187 189 190 192 194 193 192 189 191 199 201 206 203 198 200
198 236 228 199 186 186 204 211 233 254 256 244 248 234 130 191 276 219 198 166 146 149 153 151 156 163 165 174 189 186 188 192 186 184 190 189 189 195 202 208 208 203 198 200
245 240 246 254 268 205 214 211 222 234 245 248 247 262 253 258 261 242 187 162 147 152 162 170 179 181 190 203 196 185 185 186 184 177 181 192 198 198 200 201 205 207 205 204
245 242 241 260 268 245 241 239 229 238 254 263 265 265 276 273 257 238 204 182 170 168 182 191 200 203 207 210 205 187 182 182 181 177 184 192 197 194 192 196 209 207 206 214
252 245 234 234 232 240 250 250 243 244 250 254 261 265 280 287 258 225 218 203 195 194 205 207 208 212 217 215 208 197 186 185 185 185 192 193 194 188 193 197 204 211 212 214
225 235 246 245 235 248 249 246 239 236 238 249 257 268 253 239 233 232 230 224 217 215 220 223 221 214 222 223 211 199 190 186 194 196 194 191 190 193 203 200 199 208 215 209
231 234 249 257 243 244 258 57 245 244 253 260 272 282 270 262 266 252 238 234 235 230 228 229 231 220 216 209 207 192 182 191 198 201 201 196 196 201 203 203 209 217 218 213
234 228 235 244 250 258 255 242 230 243 259 260 265 272 278 238 221 230 239 246 244 238 239 232 228 220 207 202 201 190 185 194 205 209 210 203 205 205 203 208 214 216 219 221
199 222 233 235 248 256 303 55 297 247 249 274 265 255 239 228 240 242 228 245 250 249 241 229 213 207 204 199 195 198 200 206 215 219 218 211 211 208 207 210 213 212 214 223
185 204 226 236 246 258 6 16 214 236 314 19 286 268 246 252 292 341 311 245 235 237 239 225 207 206 210 197 198 210 214 223 228 227 221 213 212 216 216 214 212 210 210 216
222 215 219 228 237 248 81 184 239 334 359 332 316 305 282 293 314 314 294 269 249 246 241 224 213 211 205 200 206 220 229 235 225 221 221 219 214 213 216 214 217 215 205 207
236 252 251 238 260 19 55 284 334 327 310 316 308 301 290 285 286 286 277 265 256 251 247 229 217 218 218 214 216 226 228 224 220 223 223 221 217 211 212 211 210 211 212 216
226 259 245 248 251 279 286 292 301 302 301 308 304 298 287 281 281 279 271 260 253 251 244 229 220 226 231 231 226 228 220 216 218 224 226 221 215 212 211 212 212 213 216 221
259 236 247 256 266 272 262 275 292 303 308 308 305 299 290 283 278 273 265 258 251 248 242 233 230 235 238 232 227 224 214 214 223 226 227 224 216 218 219 219 223 225 225 233
235 241 249 261 274 271 274 287 295 291 292 298 301 300 295 283 277 274 269 263 256 251 251 245 239 236 235 228 227 225 218 220 226 228 229 225 218 220 222 222 221 218 230 222